Location: Asheville, NC
(35.6000°N, 82.5500°W)
Time: 10:48:22

Envisat - Pass Details

Date: 08 March 2018
Orbit: 764 x 766 km, 98.2° (Epoch: 21 March)

Event Time Altitude Azimuth Distance (km) Brightness Sun altitude
Rises 19:34:25 0° 152° (SSE) 3,214 5.9 -13.5°
Reaches altitude 10° 19:36:46 10° 147° (SSE) 2,292 5.1 -14.0°
Maximum altitude 19:41:38 50° 73° (ENE) 972 3.2 -15.0°
Drops below altitude 10° 19:46:31 10° 359° (N) 2,305 5.6 -16.0°
Sets 19:48:53 0° 354° (N) 3,234 6.4 -16.5°
